STARLINK-36683, 100619

Orbit data source: Space-Track

STARLINK-36683, 100619 is a payload satellite owned by SpaceX/Seattle (US) in LEO that was launched on Sun, 06 Sep 2026 UTC launched from the Air Force Western Test Range (AFWTR). Payload-class satellites include a variety of spacecraft equipped with specific instruments for various scientific and technological missions. These include communications satellites like Starlink; space stations such as the ISS; scientific satellites like the Hubble; Earth observation satellites from companies like Planet Labs, Umbra, and HawkEye 360; GPS; miniature CubeSats for education and research; and military/defense satellites.

Not visible in the next 10 days
Identifier
100619, 2026-204E
Orbit
LEO
Country
Flag of USUS
Related business
Manufacturer
SpaceX/Seattle
Mission
Operational spacecraft
Bus & Motor
STARLINK V2MO, Unknown motor
Mass
575 kg wet, ~530 kg dry
Launch date (UTC)
2026-09-06 (5 days ago)
Launch vehicle
Unknown
Launch site
Air Force Western Test Range (AFWTR)
Object type
Payload
Rocket body
Debris
Shape & HBR
BOX + PAN, 17.7 m
Radar Cross Section
RCS unknown

Expand to show TLE details & history
Last TLE update: 21 hours ago

TLE from 21 hours ago
0 STARLINK-36683
1 A0619U 26204E   26253.56340345 -.01065479  38698-3 -16482-2 0  9992
2 A0619  69.9969 266.2279 0004980 268.5221  91.5422 16.04006080   645
Epoch: 2026-09-10T13:31Z
TLE epoch observation values (Epoch: 2026-09-10T13:31:18.058Z)
Latitude
0.00005°
Longitude
73.80336°
Altitude
265.964 km
Speed
7.748 km/s
True Right ascension
17h 44m 54s
True Declination
0° 00' 00"
Sunlit
Object was in daylight at epoch
Visualization orbit readout
Latitude
Unknown
Longitude
Unknown
Altitude
Unknown
Speed
Unknown
Apparent Right ascension
Unknown
Apparent Declination
Unknown
Sunlit
N/A
Visualization observer readout
Local Sidereal Time
02:30:09
Azimuth
Unknown
Elevation
Unknown
Doppler factor
Unknown
Orbital elements
Apogee altitude
264.497 km
Perigee altitude
257.884 km
Semi-major axis
6,639.327 km
Eccentricity
0.0005
Inclination
69.9969°
RAAN
266.2279°
Arg. of periapsis
268.5221°
True anomaly
91.59924°
Mean anomaly
91.5422°
Eccentric anomaly
91.57072°
Mean motion
4.01196 °/min
Orbital period
89.73 mins
BSTAR
-0.0016482
Loading maneuver chart data...
Computing Atmospheric mass density...
Loading historical data...
Loading historical data...
Loading historical data...
Loading historical data...
Loading historical data...
Loading historical data...
Loading historical data...

Documentation

Showing up to 5 results
|